Wetbulb
44.67 44.57 44.28 43.50 43.59 43.92 44.41 44.91 45.17 46.18 47.97 49.01 49.87 51.03 52.15 53.93 54.68 55.39 56.16 56.50 54.95 53.14 49.57 46.54 45.72 43.43 42.07 41.18 40.06 38.90 38.27 37.88 37.12 36.09 35.31 35.73 37.01 37.04 37.60 38.07 37.18 37.60 38.49
42.63 43.35 42.38 41.79 41.57 41.68 42.47 43.43 44.40 44.91 46.11 46.65 48.86 49.26 49.66 50.15 52.61 53.79 53.98 55.39 54.45 52.62 49.63 46.39 44.32 42.30 40.37 39.75 39.69 38.77 37.31 37.34 37.68 35.12 33.74 30.50 32.84 35.14 36.90 36.83 37.40 35.71 36.54
40.79 40.53 40.43 40.01 40.19 40.30 40.69 41.82 42.65 43.54 44.82 45.34 46.78 47.10 47.53 45.93 45.54 48.08 49.25 51.09 53.01 51.94 50.48 46.93 44.27 42.33 40.56 40.10 39.35 38.84 38.79 35.33 36.09 37.94 36.32 32.00 31.06 31.28 34.19 34.73 35.53 34.83 34.55
40.48 40.48 39.58 39.09 39.16 39.60 40.49 40.94 41.34 41.84 43.52 43.80 44.22 43.58 43.36 42.34 43.29 44.86 46.49 47.67 49.03 49.07 49.54 48.00 44.83 42.54 40.82 39.33 38.80 39.72 39.44 36.60 36.21 34.82 38.39 35.94 35.27 31.45 28.16 32.68 33.71 33.77 34.60
38.95 38.63 38.33 39.35 39.80 39.58 38.88 38.85 39.84 40.62 40.84 40.54 41.03 40.70 40.67 41.47 42.38 42.51 41.60 42.89 44.98 46.03 46.52 46.19 44.72 43.11 41.22 39.00 38.53 37.45 37.02 38.22 36.30 36.82 33.44 33.30 33.65 34.42 31.08 27.48 29.50 32.15 32.87
38.10 38.30 38.81 38.81 37.69 38.00 37.44 37.53 37.88 38.66 39.86 39.59 38.92 38.14 37.74 38.26 38.61 39.25 39.23 40.33 41.76 42.58 43.56 44.05 43.74 43.28 41.31 39.03 38.16 37.68 37.14 36.47 36.60 36.68 34.36 33.88 32.89 31.63 31.93 30.48 28.26 28.77 30.48
36.10 35.91 36.09 36.40 36.69 35.90 36.23 36.77 35.84 35.51 36.87 37.49 37.60 37.42 37.14 36.73 37.00 36.89 37.13 37.40 38.30 39.55 40.67 41.12 40.65 41.41 41.37 39.87 38.50 37.27 36.13 36.67 36.25 35.50 37.04 35.00 35.09 35.12 34.24 32.89 29.30 28.56 29.52
36.67 35.57 35.53 35.18 35.46 35.85 35.65 35.50 35.40 34.71 35.00 35.11 35.90 36.39 36.72 36.79 36.74 36.35 36.16 36.37 36.62 37.37 38.56 38.98 39.28 40.18 40.42 39.71 38.11 36.56 35.71 35.61 36.83 34.81 34.75 35.14 35.46 35.76 34.37 33.28 30.07 27.33 26.58
36.04 35.77 35.07 34.37 34.58 34.55 34.22 34.35 33.42 33.02 33.09 33.81 34.33 34.40 34.58 34.13 33.96 35.12 35.36 35.55 35.66 37.45 36.51 36.24 36.26 37.13 37.94 37.88 37.29 34.85 34.45 34.57 34.44 35.89 34.58 34.38 34.58 34.83 35.38 34.12 32.65 31.37 24.83
34.34 34.98 34.12 33.54 33.59 33.56 33.70 33.42 33.14 31.94 31.73 32.42 33.12 33.48 33.14 33.29 32.76 32.51 32.21 33.14 34.66 35.18 34.59 34.24 34.40 34.74 35.40 35.65 34.99 33.94 33.66 33.48 33.02 34.31 33.39 33.84 33.43 34.46 34.19 34.09 33.12 32.09 30.75
32.13 33.19 34.16 33.15 32.78 32.54 31.92 31.25 31.96 31.11 30.37 31.43 32.34 31.61 31.00 31.14 30.66 29.95 30.61 31.27 31.98 33.14 33.52 33.53 33.11 32.90 33.15 33.59 32.89 32.95 33.06 32.48 32.27 32.47 31.87 32.20 32.81 34.67 33.32 32.55 32.89 32.52 31.41
32.48 31.93 33.46 32.49 31.27 31.42 30.62 31.41 31.58 30.22 30.82 30.54 30.21 30.66 30.69 30.07 28.60 28.20 28.52 29.12 30.16 30.97 31.40 32.33 31.92 32.19 32.40 32.19 31.82 31.94 32.36 31.49 31.37 31.53 31.64 31.74 33.56 32.16 30.86 30.89 33.01 34.43 30.99
31.23 31.72 31.81 31.34 31.05 31.07 31.04 30.71 30.51 30.40 30.67 29.62 29.04 28.60 27.51 27.47 27.00 25.90 26.23 27.21 28.52 28.42 28.90 29.74 30.26 30.15 30.59 30.93 31.63 31.82 31.63 31.58 31.93 32.23 31.38 32.64 30.31 31.69 33.21 31.02 32.04 32.54 31.62
30.59 30.18 29.01 29.27 30.89 31.00 29.92 30.20 30.50 30.72 30.32 29.51 28.25 26.53 26.12 26.10 26.25 26.01 25.41 24.85 26.19 26.84 26.54 27.30 28.54 29.59 29.34 29.92 30.20 30.20 30.42 30.98 31.57 31.75 31.73 32.16 31.19 31.88 31.65 31.87 31.44 31.66 30.91
30.10 28.95 28.49 28.10 28.41 28.97 29.21 29.53 29.04 28.78 28.37 27.53 26.77 26.35 26.48 26.15 25.65 25.14 24.20 24.23 24.45 26.50 26.25 25.83 26.20 26.61 28.30 29.39 29.23 29.58 28.94 29.55 30.35 30.68 30.87 31.61 32.06 33.61 33.84 32.08 32.69 31.46 31.41
29.02 29.77 29.39 29.14 29.00 29.58 29.40 29.78 28.52 27.75 27.25 25.21 24.64 26.00 25.20 25.08 23.94 23.31 23.70 23.30 23.32 23.64 23.66 24.16 24.28 24.70 26.67 30.55 32.16 31.99 30.08 30.24 30.02 29.81 30.47 30.79 30.91 32.14 35.49 36.68 36.90 34.80 31.85
28.51 28.62 29.21 28.97 28.87 28.74 29.74 28.22 28.21 27.28 23.67 22.71 23.40 23.81 23.94 23.73 24.49 23.94 23.31 22.70 21.76 21.74 21.82 22.40 22.67 23.04 24.62 29.51 30.74 32.10 29.79 29.62 30.00 29.99 30.15 30.25 30.29 30.46 30.55 33.66 36.11 36.51 37.38
27.36 27.98 28.40 28.97 29.34 28.89 27.96 27.56 26.38 24.06 24.21 23.42 22.89 23.13 23.82 22.99 23.31 22.34 21.87 22.04 21.38 20.58 20.70 20.96 21.26 21.38 22.97 27.74 29.24 30.29 28.43 28.19 28.92 29.71 29.96 29.95 30.35 30.70 29.99 29.69 29.98 31.06 32.70
28.15 28.04 28.22 28.76 28.02 26.93 25.50 24.30 23.37 23.45 23.30 23.07 23.01 22.51 21.53 20.98 21.64 21.03 21.07 21.25 20.52 19.93 19.28 19.90 19.17 19.14 20.15 25.17 26.59 27.06 25.24 26.19 26.77 28.48 29.47 29.58 29.75 32.35 34.05 30.69 28.78 29.20 30.11
28.16 27.75 27.60 27.52 25.80 24.42 24.17 22.30 21.25 19.81 19.99 20.87 21.13 20.71 19.88 18.50 18.06 18.73 18.82 19.52 19.15 19.16 19.25 18.25 18.45 18.08 17.21 22.29 24.17 24.52 22.58 22.57 24.71 26.34 27.97 30.10 30.55 32.84 34.13 31.21 30.17 27.40 28.27
25.82 26.25 24.55 24.17 23.60 22.93 20.69 18.76 18.26 17.00 18.04 17.15 16.19 14.91 14.39 13.06 13.10 13.25 13.82 13.75 13.74 14.84 14.10 14.14 14.73 14.95 15.92 16.42 21.67 23.37 21.43 21.62 22.75 24.00 25.27 27.52 31.73 33.73 34.67 34.75 30.58 29.67 30.00
23.78 23.50 22.26 22.02 21.29 19.61 17.26 15.25 14.16 15.75 13.68 11.92 10.23 8.63 7.41 7.71 8.90 7.10 7.68 8.18 8.56 8.41 8.80 9.52 10.51 12.70 14.36 17.54 19.63 21.87 23.40 24.61 22.34 23.02 25.63 26.97 30.91 32.08 33.21 33.53 34.39 34.66 32.65
22.40 20.83 15.98 16.01 16.98 13.68 13.05 11.15 11.70 11.31 9.57 6.37 4.13 3.69 4.36 4.89 5.17 3.77 3.71 3.61 4.55 4.51 4.96 6.07 6.44 7.89 11.26 12.52 17.23 19.33 20.71 22.14 21.22 24.04 27.41 29.78 30.68 31.40 31.60 33.29 34.33 32.86 31.69
16.91 15.32 12.03 9.73 9.32 10.11 11.61 7.24 8.82 8.09 4.35 1.96 2.26 3.23 2.77 2.55 3.17 4.43 4.76 3.33 2.88 2.57 3.05 2.78 2.73 3.90 5.65 7.59 9.84 11.36 12.30 16.59 19.61 24.29 25.65 27.47 28.47 29.42 29.20 29.43 31.85 32.41 30.86
14.92 12.00 9.19 9.01 8.53 8.90 7.40 4.85 6.40 3.96 2.07 1.85 2.30 2.11 2.51 2.00 2.15 3.24 3.19 3.94 5.72 6.62 5.55 6.67 7.78 7.42 7.37 9.69 14.11 14.53 13.30 13.63 16.56 18.79 21.81 22.61 21.71 21.83 24.52 26.82 29.41 29.78 30.02
10.99 8.67 6.96 6.28 5.34 4.02 3.59 3.31 0.17 -0.12 0.54 1.21 1.73 1.18 0.89 0.95 1.59 1.39 1.87 8.88 11.57 13.35 14.61 15.70 14.29 12.39 16.24 17.81 18.09 18.54 19.14 19.85 20.68 17.57 16.82 17.62 20.05 20.51 22.07 25.10 26.65 26.41 27.37
MSLP
1013.08 1013.98 1014.74 1014.98 1014.74 1014.52 1013.63 1013.16 1012.59 1012.21 1011.84 1012.22 1012.74 1013.10 1013.34 1013.56 1013.71 1013.86 1014.15 1014.56 1015.06 1015.67 1016.34 1016.85 1017.31 1017.79 1018.35 1018.72 1019.16 1019.72 1020.22 1020.74 1021.07 1022.24 1022.86 1022.80 1022.61 1022.62 1022.78 1022.91 1023.13 1023.14 1023.22
1014.09 1015.05 1015.67 1015.87 1015.63 1015.31 1015.09 1014.57 1013.93 1013.52 1013.09 1013.03 1013.18 1013.28 1013.51 1013.63 1013.78 1013.83 1014.18 1014.49 1015.00 1015.55 1016.20 1016.80 1017.39 1017.86 1018.35 1018.70 1018.94 1019.22 1020.07 1020.48 1020.58 1021.33 1022.46 1023.12 1023.22 1022.79 1022.54 1022.58 1022.94 1023.23 1023.47
1015.65 1016.34 1016.61 1016.61 1016.39 1016.09 1015.77 1015.54 1015.33 1014.89 1014.53 1014.28 1013.85 1013.67 1013.68 1014.13 1014.51 1014.67 1014.75 1014.89 1014.97 1015.57 1016.16 1016.63 1017.03 1017.57 1018.05 1018.55 1018.85 1018.93 1019.04 1019.67 1020.11 1019.81 1020.38 1021.96 1022.35 1022.88 1022.94 1022.88 1022.81 1023.03 1023.33
1016.85 1017.39 1017.68 1017.70 1017.50 1017.25 1017.05 1016.77 1016.68 1016.22 1015.70 1015.25 1015.27 1015.42 1015.17 1015.24 1015.25 1014.95 1015.06 1015.43 1015.50 1015.66 1015.78 1016.30 1016.79 1017.21 1017.63 1017.95 1018.12 1018.47 1018.75 1019.16 1019.56 1020.07 1019.55 1019.68 1019.90 1021.19 1022.73 1022.78 1022.81 1022.89 1023.01
1017.79 1018.25 1018.31 1018.66 1018.65 1018.45 1017.94 1017.57 1017.50 1017.82 1017.76 1017.09 1016.50 1016.54 1016.14 1015.80 1015.60 1015.69 1015.77 1015.74 1015.73 1016.04 1016.51 1016.62 1016.71 1017.01 1017.29 1017.70 1018.00 1018.10 1018.31 1018.46 1018.78 1018.87 1019.33 1019.85 1020.02 1019.93 1020.78 1021.85 1021.94 1022.28 1022.21
1018.38 1018.67 1019.05 1018.94 1018.82 1018.86 1018.94 1018.92 1018.64 1017.98 1018.31 1018.49 1018.31 1018.20 1017.79 1016.34 1016.14 1016.44 1016.62 1016.45 1016.10 1016.05 1016.22 1016.63 1016.92 1016.94 1017.13 1017.08 1017.42 1017.78 1017.91 1017.88 1017.95 1018.24 1018.44 1018.45 1019.27 1019.62 1019.73 1020.73 1021.40 1021.20 1021.34
1019.17 1019.24 1019.37 1019.49 1019.69 1019.85 1019.51 1019.42 1019.62 1019.54 1019.19 1019.50 1019.72 1019.16 1019.28 1017.66 1017.36 1017.19 1017.22 1017.06 1016.95 1016.59 1016.33 1016.17 1016.54 1016.75 1016.79 1016.92 1017.03 1017.30 1017.50 1017.58 1017.62 1017.63 1017.61 1017.55 1017.71 1017.82 1018.25 1018.99 1020.24 1021.11 1021.38
1019.66 1020.06 1020.12 1020.28 1020.42 1020.63 1020.87 1020.59 1020.14 1020.21 1020.20 1020.35 1020.08 1020.52 1019.32 1018.15 1018.40 1017.92 1017.93 1017.81 1017.60 1017.28 1016.97 1016.59 1016.14 1016.07 1016.43 1016.59 1016.74 1017.03 1017.11 1017.11 1017.20 1017.17 1017.20 1017.14 1017.04 1016.98 1017.19 1017.72 1018.89 1020.44 1020.94
1020.02 1020.48 1020.71 1020.74 1020.99 1021.18 1021.19 1021.35 1021.30 1020.82 1020.57 1020.86 1021.00 1020.68 1019.12 1019.06 1019.30 1018.26 1018.54 1018.69 1018.40 1017.92 1017.38 1017.02 1016.67 1016.42 1016.20 1016.43 1016.58 1016.77 1016.85 1016.84 1016.85 1016.83 1016.75 1016.62 1016.52 1016.55 1016.49 1016.69 1017.04 1017.92 1019.96
1020.57 1020.76 1020.97 1021.26 1021.38 1021.65 1021.81 1021.76 1021.63 1021.87 1021.56 1021.10 1020.68 1020.31 1020.09 1020.31 1019.92 1018.60 1019.00 1018.98 1018.82 1018.45 1017.95 1017.56 1017.11 1016.78 1016.42 1016.27 1016.49 1016.52 1016.39 1016.45 1016.44 1016.42 1016.47 1016.29 1016.18 1016.01 1015.92 1016.09 1016.28 1016.59 1017.48
1020.67 1020.78 1020.87 1021.15 1021.61 1021.63 1021.73 1022.00 1021.84 1021.52 1021.92 1021.62 1020.80 1020.41 1020.69 1020.92 1019.96 1019.60 1019.85 1019.50 1019.15 1019.05 1018.62 1018.07 1017.60 1017.14 1016.86 1016.52 1016.38 1016.26 1015.99 1016.05 1016.11 1015.97 1015.84 1015.87 1015.93 1015.78 1015.72 1015.61 1015.73 1016.11 1016.27
1020.78 1020.97 1020.96 1021.23 1021.67 1022.10 1021.56 1021.67 1021.80 1021.34 1021.23 1021.73 1021.82 1020.54 1020.48 1020.28 1020.27 1020.38 1020.61 1020.29 1019.46 1019.01 1018.76 1018.29 1017.77 1017.64 1016.85 1016.46 1016.56 1016.18 1015.59 1015.61 1015.72 1015.61 1015.44 1015.10 1015.12 1015.09 1015.25 1015.40 1015.25 1015.34 1015.75
1020.66 1021.22 1021.01 1020.98 1021.06 1021.28 1021.44 1021.27 1020.98 1020.91 1020.93 1021.13 1021.42 1021.22 1020.77 1020.59 1020.86 1020.77 1020.82 1020.72 1019.92 1019.28 1018.77 1018.83 1018.18 1017.44 1016.99 1016.46 1016.31 1016.17 1015.15 1015.08 1015.12 1014.86 1014.76 1014.37 1014.43 1014.31 1014.31 1014.59 1014.48 1014.71 1014.83
1020.01 1020.44 1020.58 1020.69 1020.99 1020.89 1021.19 1021.22 1021.17 1020.75 1020.95 1021.03 1021.08 1021.40 1020.77 1020.94 1020.84 1020.77 1020.54 1020.57 1020.01 1019.47 1018.96 1018.59 1018.14 1017.47 1017.16 1016.60 1016.22 1015.47 1014.88 1014.65 1014.45 1014.12 1013.63 1013.53 1013.55 1013.35 1013.37 1013.58 1013.65 1013.84 1014.07
1019.66 1019.96 1020.30 1020.70 1020.97 1021.07 1021.11 1021.22 1021.25 1021.19 1021.27 1021.46 1021.49 1021.45 1021.07 1020.92 1020.49 1020.29 1020.08 1020.04 1019.55 1019.10 1018.59 1018.26 1017.74 1017.28 1016.77 1016.32 1015.74 1015.47 1014.69 1014.23 1013.78 1013.41 1013.09 1012.79 1012.47 1012.34 1012.24 1012.61 1012.66 1012.91 1013.09
1019.38 1019.63 1019.83 1020.24 1020.58 1020.80 1020.93 1020.91 1021.02 1021.22 1021.38 1021.55 1021.48 1021.38 1021.02 1020.35 1020.25 1020.24 1020.11 1019.60 1019.22 1018.75 1018.18 1017.85 1017.43 1016.61 1016.06 1015.33 1014.96 1014.77 1014.18 1013.44 1013.01 1012.54 1012.16 1011.80 1011.57 1011.40 1011.53 1011.17 1011.42 1011.59 1011.97
1019.57 1019.79 1019.92 1020.00 1020.30 1020.61 1020.76 1021.06 1021.16 1021.24 1021.77 1021.79 1021.68 1021.33 1020.90 1020.69 1020.43 1020.05 1019.51 1019.00 1018.77 1018.37 1017.71 1017.03 1016.55 1015.79 1015.07 1014.66 1014.33 1013.88 1013.30 1012.62 1012.10 1011.50 1011.10 1010.67 1010.32 1010.17 1010.14 1010.40 1010.39 1010.18 1010.31
1019.53 1019.75 1019.90 1020.05 1020.17 1020.37 1020.69 1021.00 1021.30 1021.56 1021.67 1021.50 1021.24 1020.91 1020.62 1020.33 1019.86 1019.47 1019.05 1018.54 1018.16 1017.54 1016.94 1016.38 1015.88 1015.25 1014.34 1013.93 1013.38 1012.88 1012.34 1011.58 1010.90 1010.40 1009.92 1009.58 1009.13 1009.03 1009.23 1009.27 1009.49 1009.11 1008.93
1019.38 1019.54 1019.73 1019.98 1020.38 1020.68 1021.00 1021.27 1021.52 1021.66 1021.58 1021.37 1021.06 1020.75 1020.41 1020.07 1019.62 1019.07 1018.48 1017.98 1017.70 1017.16 1016.57 1015.94 1015.12 1014.58 1013.45 1013.02 1012.67 1012.33 1011.58 1010.54 1009.61 1009.09 1008.59 1008.20 1007.86 1007.64 1007.69 1008.08 1007.95 1007.89 1007.31
1019.25 1019.46 1019.70 1020.15 1020.59 1021.07 1021.36 1021.62 1021.73 1021.72 1021.63 1021.42 1021.17 1020.92 1020.70 1020.34 1019.88 1019.27 1018.53 1017.88 1017.38 1016.46 1015.82 1014.91 1014.35 1013.72 1012.82 1011.95 1011.61 1011.40 1010.86 1009.54 1008.46 1007.63 1007.05 1006.65 1006.42 1006.18 1006.31 1006.38 1006.28 1006.41 1005.67
1019.33 1019.85 1020.23 1020.79 1021.25 1021.58 1021.88 1022.07 1022.04 1021.99 1021.83 1021.80 1021.63 1021.34 1021.08 1020.73 1020.23 1019.41 1018.81 1018.10 1017.33 1016.45 1015.35 1014.52 1013.51 1012.90 1012.20 1010.95 1010.51 1009.96 1009.53 1008.54 1007.36 1006.34 1005.48 1004.97 1004.69 1004.51 1004.57 1004.58 1004.70 1004.13 1004.94
1019.80 1020.28 1020.84 1021.48 1021.94 1022.23 1022.40 1022.36 1022.36 1022.20 1022.18 1022.05 1021.82 1021.58 1021.32 1020.94 1020.26 1019.54 1018.70 1018.04 1017.26 1016.17 1015.02 1014.02 1012.61 1011.75 1011.05 1010.20 1009.23 1008.68 1008.00 1007.10 1006.04 1004.59 1003.96 1003.54 1003.30 1003.07 1002.89 1002.94 1002.87 1003.00 1003.66
1020.48 1020.95 1021.63 1021.97 1022.30 1022.54 1022.74 1022.66 1022.42 1022.35 1022.15 1022.10 1021.89 1021.62 1021.08 1020.57 1019.98 1019.23 1018.32 1017.53 1016.77 1015.77 1014.54 1013.50 1012.22 1010.98 1010.49 1009.69 1008.94 1007.83 1006.98 1006.02 1004.81 1003.32 1002.09 1001.88 1001.84 1001.78 1001.53 1001.33 1001.36 1001.82 1002.31
1021.07 1021.71 1022.22 1022.49 1022.72 1022.80 1022.95 1023.12 1022.81 1022.63 1022.48 1022.05 1021.57 1021.07 1020.48 1019.81 1019.29 1018.54 1017.71 1016.81 1016.04 1015.02 1014.05 1012.97 1011.67 1010.50 1009.67 1009.02 1008.42 1007.58 1006.95 1005.86 1004.08 1002.36 1000.91 1000.44 1000.43 1000.50 1000.29 1000.22 1000.17 1000.25 1000.62
1021.77 1022.32 1022.76 1022.93 1023.02 1023.05 1023.04 1023.06 1022.90 1022.76 1022.43 1021.90 1021.23 1020.53 1019.89 1019.24 1018.45 1017.76 1016.99 1016.00 1015.03 1014.13 1012.56 1011.23 1010.01 1008.75 1007.60 1007.13 1006.42 1005.52 1004.93 1004.42 1003.57 1002.43 1000.87 999.80 999.52 999.39 999.13 998.90 998.75 998.80 999.19
1022.38 1022.82 1023.12 1023.19 1023.14 1023.22 1023.19 1022.99 1022.82 1022.67 1022.27 1021.48 1020.71 1020.05 1019.43 1018.67 1017.85 1016.81 1015.67 1015.05 1013.57 1012.33 1011.09 1009.77 1008.60 1007.24 1006.17 1005.11 1004.28 1003.46 1002.75 1002.32 1002.04 1001.18 1000.10 999.27 998.90 998.17 997.88 997.72 997.56 997.74 998.00
Wind_Speed
14 15 14 12 13 15 14 13 12 10 5 4 2 1 1 1 1 2 3 5 6 7 6 4 6 5 8 8 8 5 7 4 5 5 3 2 2 3 3 3 3 3 3
15 13 11 12 12 12 13 15 15 14 8 4 3 3 2 2 0 2 2 2 5 6 5 5 5 6 5 6 8 6 4 3 7 5 4 2 3 3 4 4 4 6 3
10 10 12 13 12 15 14 14 15 14 12 11 5 4 4 4 4 4 2 1 4 4 5 6 6 7 5 6 6 8 11 5 6 7 7 4 6 3 2 4 4 6 4
9 9 11 13 12 11 10 13 14 14 11 12 8 7 4 3 2 1 2 2 1 2 5 6 6 6 5 6 7 7 9 5 9 1 6 1 4 5 3 2 4 5 6
8 9 9 10 10 9 10 8 10 13 13 11 9 6 6 4 4 4 5 5 2 2 4 4 5 6 5 5 7 6 7 6 6 8 3 1 1 1 4 4 5 4 5
8 8 8 9 10 8 8 11 12 13 13 12 11 10 8 6 5 6 4 4 1 2 4 5 5 5 5 6 6 7 8 7 5 6 4 5 6 5 4 3 2 4 5
7 8 8 8 9 10 9 9 10 12 10 9 8 10 9 9 8 6 5 6 4 3 4 5 5 4 5 6 6 7 7 8 7 8 10 5 5 4 4 4 3 4 3
7 7 8 7 7 8 8 8 8 9 9 8 9 6 7 7 6 7 5 5 5 5 7 6 4 6 6 6 5 4 5 6 8 9 7 6 6 5 5 6 6 2 2
6 7 7 7 7 6 7 7 8 8 9 8 7 8 10 10 8 9 7 7 7 8 8 8 7 6 5 6 6 4 6 6 6 8 8 6 5 5 6 4 5 7 6
6 6 6 5 4 4 4 6 5 5 5 5 5 7 8 7 6 7 8 9 9 10 9 8 7 8 7 6 6 5 5 7 5 5 7 8 4 7 5 6 5 4 7
2 1 4 4 4 4 5 4 5 6 6 7 5 5 5 6 8 7 7 7 7 9 8 7 8 7 7 7 6 7 7 7 7 7 8 9 7 8 6 5 6 6 5
3 3 4 4 4 3 3 3 2 4 4 4 5 6 5 7 6 7 7 7 7 8 9 9 6 7 7 6 7 8 6 7 9 9 9 11 8 11 7 6 11 12 6
5 4 3 3 3 2 4 4 4 4 3 4 5 5 5 5 5 5 6 8 8 7 6 7 8 10 8 6 7 8 7 8 10 11 10 12 9 12 10 9 11 10 8
4 1 2 3 4 4 5 5 6 5 5 5 5 6 6 5 5 5 5 6 7 7 7 7 7 7 7 8 9 8 8 10 11 11 11 12 12 14 12 12 12 10 10
6 7 2 1 4 3 3 3 4 5 4 4 5 6 6 6 6 7 6 7 6 7 6 8 8 7 7 7 8 9 8 9 11 11 12 13 13 17 16 11 13 11 12
5 3 5 4 5 5 5 5 5 6 3 5 7 8 8 8 6 5 6 6 7 7 7 10 8 10 9 16 20 17 11 11 12 12 12 13 14 15 23 25 25 17 15
4 5 5 6 5 4 2 4 5 4 3 4 6 7 7 8 11 9 9 11 10 9 11 11 10 13 13 21 24 22 12 12 13 14 13 13 11 12 13 20 27 28 28
2 3 4 5 4 0 2 4 4 4 4 6 7 7 7 9 9 9 10 13 11 13 13 14 14 14 14 25 26 26 15 14 15 15 15 15 16 15 14 13 16 19 19
4 4 3 2 4 4 4 3 3 4 5 7 8 7 6 10 12 14 15 15 13 14 15 15 18 16 17 28 28 25 16 16 18 16 16 16 17 21 24 17 17 20 20
4 4 4 3 5 5 6 3 5 5 8 9 9 9 10 12 15 16 17 15 15 17 15 19 18 20 21 31 34 29 14 18 15 17 17 23 22 26 26 19 18 19 21
2 5 6 5 5 6 5 6 7 8 6 8 10 12 13 13 14 16 15 16 17 18 19 20 20 21 21 24 35 36 19 16 16 15 14 13 25 27 29 30 18 21 15
5 6 5 4 5 5 5 8 9 9 9 10 11 12 12 11 12 15 15 16 16 18 19 19 19 16 18 26 30 35 35 31 19 19 15 14 25 27 28 23 30 31 24
4 4 3 5 4 3 2 9 11 11 12 12 12 12 12 12 12 13 14 13 13 13 14 14 15 15 13 14 30 34 35 35 24 18 22 30 29 29 25 28 28 25 15
3 2 3 3 5 3 5 4 10 11 11 13 13 13 13 14 12 10 11 11 12 13 13 14 15 15 14 14 13 14 15 26 19 22 19 16 21 23 23 16 18 14 13
2 3 2 4 7 7 8 6 9 9 11 13 13 13 11 13 13 12 11 12 13 15 15 14 15 15 14 13 25 25 15 13 19 21 14 11 11 11 12 13 13 13 12
2 2 2 5 7 7 8 9 6 6 11 13 11 11 12 12 12 13 13 22 29 32 33 35 29 17 30 38 37 36 35 34 34 18 16 14 12 11 10 10 10 11 13
Wind_Direction
73 54 43 26 25 14 19 12 8 358 33 53 99 70 176 172 140 145 179 171 163 173 175 171 171 162 173 179 177 161 167 165 145 91 36 1 175 193 194 172 166 167 177
56 50 45 35 31 26 25 21 19 14 12 27 18 64 44 28 88 148 147 176 163 167 173 172 178 171 160 180 181 166 152 151 169 143 128 175 316 272 212 180 179 185 185
55 45 38 35 30 25 27 27 21 15 13 0 12 21 44 36 20 17 29 18 114 150 178 191 185 177 171 191 194 186 177 163 204 187 149 144 210 136 264 220 194 177 177
62 50 36 35 33 31 26 31 22 16 17 15 19 21 32 48 5 256 112 63 25 241 191 197 207 196 188 192 193 192 195 155 189 257 243 359 148 159 166 239 212 197 194
71 57 50 47 32 26 26 37 41 29 10 9 19 16 23 25 5 20 37 358 30 299 302 299 231 219 197 209 201 196 199 203 181 196 140 125 230 239 137 180 207 209 188
66 66 59 47 40 30 30 22 26 34 24 18 11 10 4 28 37 14 9 332 271 231 225 259 272 257 234 206 206 211 207 204 207 202 200 174 168 198 169 135 175 190 223
61 55 47 44 39 23 24 36 25 26 23 16 6 16 352 17 25 23 8 1 345 328 250 215 241 251 249 236 214 211 211 214 216 195 213 203 201 167 177 120 171 153 223
69 64 55 49 49 40 23 29 36 32 21 11 10 4 11 32 17 19 6 358 354 336 341 331 273 238 246 254 238 224 220 214 225 222 216 211 214 194 182 167 143 123 187
68 68 69 60 49 44 50 35 29 31 26 11 357 3 19 23 10 24 18 2 348 343 343 337 333 311 262 251 255 236 234 230 226 232 226 216 216 216 208 187 171 161 170
45 61 67 63 69 57 59 53 66 39 22 19 19 19 15 6 358 28 14 4 350 349 343 337 333 327 315 276 264 256 239 232 236 231 233 233 219 221 214 208 193 182 175
85 87 114 99 72 57 57 53 54 56 15 360 5 37 24 358 6 13 357 356 345 343 338 335 330 321 313 300 282 259 249 245 241 236 226 233 228 234 226 216 206 207 164
28 16 53 80 61 19 42 69 52 73 54 2 336 17 21 11 11 3 344 337 340 338 334 335 333 318 313 304 291 276 256 246 249 244 238 236 224 230 211 208 220 218 203
174 187 160 143 111 50 12 9 8 40 39 14 354 351 4 1 344 346 333 326 326 325 322 320 322 324 318 305 286 275 266 252 250 245 242 244 221 231 224 216 218 217 209
197 246 320 27 10 32 12 357 354 3 358 355 346 331 334 321 306 300 291 298 303 298 302 301 294 296 293 297 289 278 274 267 262 252 245 245 232 234 225 223 219 214 208
212 214 170 322 298 296 300 326 327 337 339 338 324 305 301 295 295 291 285 280 285 282 280 295 292 283 278 276 281 279 266 263 267 258 256 255 249 240 228 225 228 213 213
349 274 176 223 253 257 264 273 288 292 306 321 313 311 312 314 295 263 269 282 285 286 284 285 273 285 285 289 292 288 278 271 267 268 261 253 252 251 247 241 233 219 213
315 320 252 228 229 230 279 283 280 292 282 272 280 279 279 283 289 288 291 296 295 291 290 287 281 280 278 283 287 283 276 269 265 263 265 264 254 248 242 247 247 241 230
319 313 320 311 277 95 6 343 341 320 292 280 273 271 274 274 279 276 275 286 293 295 293 289 285 284 279 279 280 281 276 268 262 259 258 256 258 248 242 234 240 240 238
258 251 262 327 39 25 28 8 319 281 285 287 291 294 297 299 298 293 290 287 287 285 286 285 287 282 280 283 283 282 279 269 264 258 253 250 253 251 245 240 237 242 239
274 277 304 52 47 31 30 4 315 312 302 306 314 317 313 305 301 298 297 297 291 286 284 282 280 281 281 281 284 284 275 269 262 259 256 246 244 250 245 238 236 237 240
286 62 44 41 37 30 23 331 313 305 317 329 315 311 311 309 303 299 297 296 292 289 284 282 281 279 276 280 282 282 276 267 267 260 257 248 245 246 244 237 233 236 230
62 49 29 23 15 17 350 319 312 321 321 313 311 308 303 298 296 293 293 290 289 285 284 283 281 278 278 276 281 283 279 275 266 258 254 252 251 250 249 246 242 240 234
69 58 39 336 347 1 353 318 318 321 317 313 306 301 297 295 291 291 292 290 286 283 284 284 286 288 289 287 289 292 292 285 280 273 258 254 254 258 258 255 248 237 227
76 67 22 326 308 313 324 298 312 315 311 306 304 304 302 300 293 286 286 288 287 284 284 284 281 279 278 278 280 280 286 292 299 293 264 259 259 261 256 250 247 231 219
56 52 342 306 306 320 314 310 308 309 305 304 303 302 300 300 298 289 287 283 278 278 280 275 277 282 280 276 277 276 269 263 274 284 282 257 241 242 251 245 240 219 213
20 316 291 298 302 307 304 302 295 294 298 301 305 305 302 297 296 295 290 285 290 293 292 292 290 286 286 292 291 287 283 278 274 268 268 268 265 240 238 246 234 212 210